Jaipur, India

2:06 PM IST on May 28, 2017 (GMT +0530)
Jaipur

Weather History for VIJP - May, 2012

Change the Weather History Date:

Thursday, May 17, 2012

  Actual Average Record
Temperature  
Mean Temperature 91 °F -  
Max Temperature 103 °F - - ()
Min Temperature 79 °F - - ()
Cooling Degree Days 26    
Growing Degree Days 41 (Base 50)    
Moisture  
Dew Point 58 °F    
Average Humidity 32    
Maximum Humidity 54    
Minimum Humidity 10    
Precipitation  
Precipitation 0.00 in - - ()
Sea Level Pressure  
Sea Level Pressure 29.63 in    
Wind  
Wind Speed 7 mph ()    
Max Wind Speed 14 mph    
Max Gust Speed -    
Visibility 2.2 miles    
Events      
T = Trace of Precipitation, MM = Missing Value Source: Averaged Metar Reports

Daily Weather History Graph

Daily Weather History Graph

Search for Another Location

Airport or City:

Trip Planner

Search our weather history database for the weather conditions in past years. The results will help you decide how hot, cold, wet, or windy it might be!

Date:

Astronomy

May. 17, 2012 Rise Set
Actual Time 5:38 AM IST 7:08 PM IST
Civil Twilight 5:12 AM IST 7:33 PM IST
Nautical Twilight 4:42 AM IST 8:04 PM IST
Astronomical Twilight 4:11 AM IST 8:35 PM IST
Moon 3:06 AM IST (5/17) 4:08 PM IST (5/17)
Length of Visible Light 14h 20m
Length of Day
13h 30m
Waning Crescent, 12% of the Moon is Illuminated
May 17
Waning Crescent
May 21
New
May 29
First Quarter
Jun 4
Full
Jun 11
Last Quarter

Hourly Weather History & Observations

Time (IST) Temp. Heat Index Dew Point Humidity Pressure Visibility Wind Dir Wind Speed Gust Speed Precip Events Conditions
12:00 AM 93.2 °F 91.3 °F 55.4 °F 28% 29.62 in 2.5 mi West 11.5 mph - N/A   Haze
1:00 AM 91.4 °F 90.7 °F 59.0 °F 34% 29.59 in 2.5 mi West 11.5 mph - N/A   Haze
2:00 AM 89.6 °F 88.9 °F 59.0 °F 36% 29.59 in 2.5 mi West 12.7 mph - N/A   Haze
5:00 AM 80.6 °F 81.5 °F 60.8 °F 51% 29.62 in 1.6 mi NW 9.2 mph - N/A   Scattered Clouds
5:30 AM 80 °F - 61 °F 41% 29.55 in 1 mi NW 6.9 mph - -   Haze
5:30 AM 80.6 °F 81.5 °F 60.8 °F 51% 29.62 in 1.9 mi NW 8.1 mph - N/A   Haze
6:00 AM 80.6 °F 81.5 °F 60.8 °F 51% 29.62 in 1.9 mi Variable 3.5 mph - N/A   Haze
7:00 AM 82.4 °F 82.9 °F 60.8 °F 48% 29.62 in 1.9 mi Calm Calm - N/A   Haze
8:00 AM 80.6 °F 81.8 °F 62.6 °F 54% 29.68 in 1.9 mi WSW 9.2 mph - N/A   Haze
8:30 AM 82 °F - 57 °F 32% 29.62 in 1 mi WSW 8.1 mph - -   Haze
9:00 AM 84.2 °F 85.0 °F 62.6 °F 48% 29.71 in 1.9 mi West 9.2 mph - N/A   Haze
10:00 AM 89.6 °F 89.5 °F 60.8 °F 38% 29.71 in 1.9 mi West 13.8 mph - N/A   Haze
11:00 AM 93.2 °F 93.3 °F 60.8 °F 34% 29.71 in 2.5 mi WNW 13.8 mph - N/A   Haze
11:30 AM 96 °F - 54 °F 16% 29.59 in 2 mi WNW 9.2 mph - -   Haze
12:00 PM 98.6 °F 97.6 °F 57.2 °F 25% 29.71 in 2.5 mi NW 11.5 mph - N/A   Haze
1:00 PM 98.6 °F 97.6 °F 57.2 °F 25% 29.68 in 2.5 mi Variable 10.4 mph - N/A   Haze
2:30 PM 101 °F - 49 °F 10% 29.54 in 2 mi WNW 6.9 mph - -   Haze
3:00 PM 100.4 °F 99.7 °F 57.2 °F 24% 29.65 in 3.1 mi Variable 9.2 mph - N/A   Haze
4:00 PM 100.4 °F 100.2 °F 59.0 °F 25% 29.62 in 3.1 mi NNW 8.1 mph - N/A   Haze
5:00 PM 100.4 °F 100.2 °F 59.0 °F 25% 29.62 in 3.1 mi Variable 9.2 mph - N/A   Haze
5:30 PM 101 °F - 52 °F 12% 29.50 in 2 mi NW 6.9 mph - -   Haze
7:00 PM 98.6 °F 97.6 °F 57.2 °F 25% 29.62 in 3.1 mi Variable 6.9 mph - N/A   Haze
8:00 PM 96.8 °F 95.8 °F 57.2 °F 27% 29.65 in 3.1 mi Variable 4.6 mph - N/A   Haze
8:30 PM 93 °F - 58 °F 21% 29.55 in 2 mi Calm Calm - -   Haze
9:00 PM 95.0 °F 94.4 °F 59.0 °F 30% 29.65 in 2.5 mi Calm Calm - N/A   Haze
10:00 PM 93.2 °F 93.3 °F 60.8 °F 34% 29.68 in 2.5 mi Calm Calm - N/A   Haze
11:00 PM 91.4 °F 91.4 °F 60.8 °F 36% 29.68 in 2.5 mi Calm Calm - N/A   Haze
11:30 PM 92 °F - 59 °F 23% 29.58 in 2 mi North 5.8 mph - -   Haze